Location: Kitchener-Waterloo
(43.4500°N, 80.5000°W)
Time: 22:00:24
(UTC-04:00)

Daily predictions for brighter satellites

Satellite Brightness Start Highest point End
(mag) Time Altitude Azimuth Time Altitude Azimuth Time Altitude Azimuth
SL-16 R/B 3.7 21:18:21 10° SW 21:23:43 44° WNW 21:29:08 10° NNE
Okean 2 4.4 21:23:58 10° SSW 21:28:03 52° W 21:32:09 10° N
Cosmos 1812 Rocket 3.7 21:24:19 10° N 21:28:40 58° E 21:33:01 10° SSE
H-2A R/B 4.3 21:28:21 10° ENE 21:28:45 10° NE 21:29:09 10° NE
PSLV R/B 3.5 21:27:20 10° WSW 21:30:48 56° S 21:34:17 10° E
Tsikada Rocket 4.1 21:24:45 10° S 21:31:05 67° E 21:37:23 10° NNE
YAOGAN 6 4.3 21:32:29 10° ESE 21:35:19 21° ENE 21:38:10 10° NNE
CZ-2C R/B 1.5 21:34:43 10° S 21:36:54 42° W 21:39:06 10° NNW
SPOT 5 3.1 21:33:05 10° SE 21:37:15 45° ENE 21:41:23 10° N
Terra 4.1 21:38:41 10° ENE 21:39:40 11° ENE 21:40:38 10° NE
USA 234 4.0 21:36:05 10° E 21:42:18 47° NNE 21:48:32 10° NW
H-2A R/B 2.2 21:38:02 10° S 21:42:19 79° WSW 21:46:45 10° NNW
Lacrosse 4 Rocket 2.2 21:39:25 10° S 21:42:58 30° ESE 21:46:32 10° NE
deb Chang Zheng 4 3.6 21:39:06 10° NNE 21:43:32 89° W 21:47:53 10° SSW
CZ-4 SHROUD 3.5 21:40:58 10° SSE 21:44:02 50° ENE 21:47:08 10° N
ERS-1 Rocket 3.4 21:39:44 10° S 21:44:42 66° WSW 21:49:43 10° NNW
Cosmos 2228 4.3 21:40:57 10° NNW 21:45:06 42° W 21:49:15 10° SSW
Lacrosse 5 4.5 21:42:29 10° NW 21:45:55 18° N 21:49:21 10° NE
GEOS 3 Rocket 4.1 21:43:26 10° SSE 21:48:36 57° WSW 21:53:45 10° NW
Cosmos 1515 3.9 21:45:05 10° S 21:48:51 54° E 21:52:38 10° NNE
Meteor 2-12 Rocket 4.4 21:43:31 10° N 21:49:38 74° E 21:55:40 10° SSE
Cosmos 1626 Rocket 4.1 21:45:40 10° SSW 21:50:03 64° W 21:54:26 10° N
PSLV R/B 3.3 21:47:37 10° SSE 21:50:40 58° ENE 21:53:44 10° N
Cosmos 1603 4.3 21:47:34 10° SW 21:53:06 62° WNW 21:58:42 10° NNE
Atlas Centaur 2 3.7 21:51:09 10° SW 21:57:12 30° S 22:03:24 12° SE
MetOp-A 4.3 21:52:38 10° SSE 21:57:54 61° ENE 22:03:11 10° N
Cosmos 1238 4.1 21:56:53 10° S 21:59:55 86° W 22:03:00 10° N
Envisat 3.0 21:54:55 10° SSE 22:00:00 88° WSW 22:05:07 10° NNW
Cosmos 1634 Rocket 4.1 21:55:16 10° N 22:01:23 62° E 22:07:18 11° SSE
Cosmos 407 Rocket 3.8 21:58:08 10° S 22:03:08 45° ESE 22:08:06 10° NNE
USA 245 4.4 21:58:44 12° SE 22:03:47 49° ENE 22:08:23 10° N
Cosmos 1943 Rocket 3.1 21:59:29 10° N 22:04:34 35° NE 22:08:55 14° ESE
Nimbus 7 Rocket 4.5 21:59:26 10° NNE 22:05:26 88° WNW 22:11:20 10° SSW
Cosmos 1953 Rocket 3.8 22:06:21 10° SSE 22:10:33 51° E 22:14:53 10° NNE
SL-27 R/B 4.0 22:11:35 17° ESE 22:12:03 17° E 22:14:19 10° ENE
Cosmos-2242 4.4 22:08:35 10° NNE 22:12:15 25° ENE 22:14:41 16° ESE
Cosmos 1943 3.2 22:07:42 10° SSW 22:13:22 83° ESE 22:19:06 10° NNE
Cosmos 2346 Rocket 4.4 22:11:58 10° S 22:18:08 77° E 22:24:16 10° N
Cosmos 1939 Rocket 4.1 22:14:46 10° SSW 22:18:40 40° W 22:22:35 10° NNW
Cosmos 1953 3.8 22:15:36 10° NNE 22:18:45 22° ENE 22:20:31 17° ESE
Lacrosse 5 rocket 4.3 22:16:56 10° NW 22:19:03 14° N 22:21:14 10° NNE
Cosmos 2279 Rocket 4.3 22:15:03 10° N 22:21:08 52° ENE 22:25:44 18° SSE
SL-08 RB Rocket 4.2 22:19:22 19° SE 22:22:21 45° ENE 22:26:40 10° N
Cosmos 1954 Rocket 4.5 22:19:49 13° SSE 22:24:08 40° ESE 22:29:04 10° NE
Cosmos 1346 Rocket 2.7 22:27:05 11° S 22:30:49 88° E 22:34:47 10° N
Cosmos 1842 3.7 22:35:17 26° SSE 22:37:03 43° E 22:40:47 10° NNE
SeaSat 1 2.8 22:35:39 18° S 22:39:13 61° WSW 22:44:08 10° NNW
ARGOS 3.1 22:36:49 20° SSE 22:40:41 83° ENE 22:46:09 10° NNW
SL-23 DEB 4.2 22:37:23 10° SW 22:43:44 64° SE 22:47:31 10° ENE
COSMOS 2455 4.3 22:38:26 10° WSW 22:44:03 40° NW 22:49:44 10° NNE
Cosmos 1758 Rocket 3.5 22:40:29 14° S 22:44:10 86° W 22:48:33 10° N
Meteor 1-21 4.2 22:39:58 13° S 22:45:08 77° E 22:50:59 10° NNE
CARTOSAT-1 4.2 22:45:04 26° ESE 22:46:59 41° ENE 22:51:04 10° N
Geosat 4.4 22:46:21 10° NE 22:51:07 42° ESE 22:53:29 26° SSE
ISS -1.1 22:48:17 10° W 22:51:10 28° NNW 22:54:03 10° NE
CZ-4B R/B 4.0 22:48:32 10° N 22:53:36 63° WNW 22:58:44 10° SSW
Cosmos 2369 Rocket 3.2 22:49:56 10° NW 22:55:09 39° WSW 22:59:14 15° SSW
Landsat 7 3.8 22:58:24 30° SSE 23:00:47 82° ENE 23:05:33 10° NNW
Cosmos 1766 3.7 22:57:02 10° NNW 23:01:00 60° W 23:03:01 27° SSW
Cosmos 1850 Rocket 4.3 23:01:16 30° SSE 23:03:21 45° ESE 23:08:18 10° NNE
CZ-4 R/B 4.2 22:59:51 10° N 23:04:50 69° WNW 23:09:21 13° SSW
Cosmos 1570 Rocket 4.1 23:00:22 10° NNW 23:05:44 67° ENE 23:08:12 32° SE
Cosmos 1758 3.3 23:02:46 10° N 23:06:54 75° E 23:08:15 41° SSE
H-2A R/B 2.0 23:04:51 32° SSE 23:07:11 72° ENE 23:12:17 10° N
DELTA 2 DEB (DPAF) 4.3 23:05:25 30° S 23:07:37 71° WSW 23:12:07 10° NNW
PSLV R/B 3.6 23:04:49 10° W 23:08:15 47° SSW 23:08:17 47° S
YAOGAN 6 4.3 23:06:29 16° SW 23:08:45 28° W 23:12:01 10° NW
NOAA 11 4.5 23:05:44 23° S 23:09:08 62° WSW 23:14:32 10° NNW
Cosmos 1140 Rocket 3.4 23:07:17 25° S 23:10:18 68° ESE 23:15:32 10° NNE
ATLAS 3B R/B 3.5 23:02:48 10° SW 23:10:25 62° NW 23:17:50 10° NNE
Spot 4 4.0 23:11:57 35° SE 23:13:47 62° ENE 23:18:32 10° N
IGS 5A 3.5 23:12:41 42° SE 23:13:57 69° ENE 23:18:06 10° N
Cosmos 1842 Rocket 3.7 23:09:45 10° N 23:14:05 57° E 23:15:21 40° SE
Terra 1.7 23:14:41 37° SSE 23:16:36 82° ENE 23:21:23 10° NNW
Cosmos 1340 3.8 23:17:42 28° E 23:17:42 28° E 23:20:48 10° NNE
NOSS 3-2 (A) 4.1 23:20:30 31° SE 23:21:38 33° ESE 23:27:23 10° NE
Lacrosse 4 Rocket 3.5 23:18:12 10° WSW 23:21:40 27° NW 23:25:12 10° N
Cosmos 1544 3.4 23:19:51 10° N 23:23:31 51° ENE 23:23:55 48° ESE
Cosmos 2084 3.7 23:19:30 10° NW 23:23:35 56° WSW 23:24:37 43° S
SAR-Lupe-2 3.7 23:23:38 52° SSW 23:24:19 67° WSW 23:27:55 10° NNW
USA 234 3.4 23:21:50 31° SSE 23:25:09 64° SW 23:31:41 10° NW
Cosmos 1470 3.2 23:23:49 10° N 23:27:33 43° ENE 23:27:56 41° E
Cosmos 1805 3.4 23:25:07 10° NNW 23:29:03 69° W 23:29:59 48° SSW
Cosmos 1092 Rocket 4.1 23:27:08 33° SSE 23:29:58 64° E 23:36:10 10° NNE
Lacrosse 5 4.1 23:26:34 10° NNW 23:30:31 22° NNE 23:34:26 10° ENE
BREEZE-M DEB (TANK) 3.9 23:28:39 10° WNW 23:30:38 25° NNW 23:32:05 13° NE
Aureole 2 4.4 23:29:37 10° NNW 23:32:14 60° NNE 23:32:14 60° NNE
Cosmos 614 Rocket 3.9 23:30:46 39° S 23:32:37 67° ESE 23:37:48 10° NNE
COSMOS 2406 3.3 23:33:42 19° SSW 23:37:53 80° WNW 23:43:41 10° NNE
Nadezhda 4 Rocket 4.0 23:34:52 28° S 23:38:28 84° W 23:44:50 10° N
DMSP B5D2-2 4.1 23:37:31 10° N 23:42:49 78° WNW 23:45:23 31° SSW
Atlas Centaur 2 4.0 23:39:52 10° WSW 23:46:02 25° SSW 23:46:02 25° SSW
SL-27 R/B 4.4 23:45:17 16° WSW 23:47:10 25° WNW 23:50:01 10° N
Cosmos 2221 3.1 23:43:06 10° N 23:47:13 42° ENE 23:47:39 40° E
Cosmos 1943 Rocket 3.2 23:43:16 10° NW 23:48:17 36° WSW 23:50:26 26° SSW
SL-8 R/B 3.6 23:43:55 10° WNW 23:48:45 73° SSW 23:49:39 56° SSE
Cosmos 2082 Rocket 4.0 23:49:20 15° E 23:49:20 15° E 23:52:04 10° ENE
COSMOS 2487 2.5 23:54:06 81° NW 23:54:06 81° NW 23:57:39 10° NNE
Cosmos 1953 3.9 23:51:48 10° NNW 23:55:12 27° W 23:56:18 24° WSW
